CW8216 Weather Reports


time (UTC)temp
C
wind
direction
speed
KPH
gust
KPH
rain 1hr
cm
rain 24hr
cm
rain mn
cm
humidity
%
barometer
mb
20260509013539 15 167 3.2 9.7 0.00 0.00 0.00 69 1031.0
20260509013056 15 139 4.8 11.3 0.00 0.00 0.00 68 1031.0
20260509012541 15 123 6.4 11.3 0.00 0.00 0.00 68 1031.0
20260509012039 15 94 3.2 9.7 0.00 0.00 0.00 68 1030.9
20260509011601 15 309 1.6 8.0 0.00 0.00 0.00 70 1030.9
20260509011041 15 91 3.2 8.0 0.00 0.00 0.00 69 1030.9
20260509010545 15 103 1.6 9.7 0.00 0.00 0.00 68 1031.0
20260509010059 15 101 3.2 9.7 0.00 0.00 0.00 68 1031.0
20260509005541 15 44 3.2 11.3 0.00 0.00 0.00 69 1031.0
20260509005039 15 15 3.2 11.3 0.00 0.00 0.00 70 1031.1
20260509004555 15 117 4.8 11.3 0.00 0.00 0.00 69 1031.1
20260509004041 15 110 4.8 11.3 0.00 0.00 0.00 71 1031.1
20260509003537 14 104 4.8 11.3 0.00 0.00 0.00 71 1031.1
20260509003055 14 101 3.2 6.4 0.00 0.00 0.00 71 1030.9
20260509002539 14 94 3.2 8.0 0.00 0.00 0.00 72 1030.9
20260509002036 14 95 0.0 8.0 0.00 0.00 0.00 74 1030.9
20260509001546 13 125 4.8 8.0 0.00 0.00 0.00 73 1031.0
20260509001037 13 85 3.2 8.0 0.00 0.00 0.00 75 1030.9
20260509000539 13 113 3.2 8.0 0.00 0.00 0.00 75 1030.8
20260509000052 13 127 3.2 8.0 0.00 0.00 0.00 75 1030.8
20260508235537 13 0 1.6 6.4 0.00 0.00 0.00 76 1030.8
20260508235039 13 94 1.6 6.4 0.00 0.00 0.00 77 1030.8
20260508234550 12 108 3.2 8.0 0.00 0.00 0.00 77 1030.9
20260508234036 12 124 3.2 9.7 0.00 0.00 0.00 78 1030.9
20260508233539 12 126 4.8 17.7 0.00 0.00 0.00 78 1031.0
20260508233053 12 126 4.8 17.7 0.00 0.00 0.00 79 1030.9
20260508232536 12 129 8.0 17.7 0.00 0.00 0.00 79 1030.9
20260508232037 12 153 6.4 9.7 0.00 0.00 0.00 79 1031.0
20260508231551 12 140 1.6 8.0 0.00 0.00 0.00 78 1030.8
20260508231041 12 112 4.8 8.0 0.00 0.00 0.00 78 1030.7
20260508230536 12 119 1.6 14.5 0.00 0.00 0.00 79 1030.7
20260508230052 12 124 4.8 14.5 0.00 0.00 0.00 79 1030.7
20260508225536 12 126 4.8 9.7 0.00 0.00 0.00 78 1030.6
20260508225042 12 120 3.2 9.7 0.00 0.00 0.00 78 1030.6
20260508224553 12 130 4.8 17.7 0.00 0.00 0.00 78 1030.5
20260508224037 12 126 6.4 17.7 0.00 0.00 0.00 79 1030.4
20260508223537 12 129 8.0 17.7 0.00 0.00 0.00 78 1030.4
20260508223048 12 114 6.4 11.3 0.00 0.00 0.00 79 1030.3
20260508222537 12 124 4.8 9.7 0.00 0.00 0.00 79 1030.4
20260508222037 12 117 4.8 14.5 0.00 0.00 0.00 79 1030.4
20260508221556 12 126 6.4 14.5 0.00 0.00 0.00 79 1030.3
20260508221039 12 133 6.4 11.3 0.00 0.00 0.00 79 1030.3
20260508220539 12 127 4.8 9.7 0.00 0.00 0.00 79 1030.4
20260508220053 12 144 3.2 8.0 0.00 0.00 0.00 80 1030.2
20260508215536 11 125 3.2 8.0 0.00 0.00 0.00 80 1030.2
20260508215037 11 126 4.8 8.0 0.00 0.00 0.00 80 1030.2
20260508214549 11 127 3.2 6.4 0.00 0.00 0.00 80 1030.1
20260508214040 11 135 3.2 4.8 0.00 0.00 0.00 80 1030.1
20260508213536 11 117 3.2 6.4 0.00 0.00 0.00 80 1030.1
20260508213048 11 116 1.6 11.3 0.00 0.00 0.00 80 1030.0
20260508212540 11 139 6.4 12.9 0.00 0.00 0.00 80 1030.0
20260508212043 11 143 6.4 12.9 0.00 0.00 0.00 80 1029.8
20260508211553 11 140 6.4 12.9 0.00 0.00 0.00 80 1029.7
20260508211038 11 129 4.8 11.3 0.00 0.00 0.00 80 1029.7
20260508210539 11 124 4.8 8.0 0.00 0.00 0.00 80 1029.6
20260508210052 11 124 4.8 14.5 0.00 0.00 0.00 80 1029.4
20260508205538 11 128 8.0 14.5 0.00 0.00 0.00 80 1029.3
20260508205038 11 143 6.4 9.7 0.00 0.00 0.00 80 1029.3
20260508204553 11 124 4.8 9.7 0.00 0.00 0.00 80 1029.3
20260508204040 11 129 4.8 8.0 0.00 0.00 0.00 80 1029.3
20260508203536 11 128 4.8 8.0 0.00 0.00 0.00 81 1029.3
20260508203048 11 129 4.8 8.0 0.00 0.00 0.00 81 1029.3
20260508202543 11 128 3.2 8.0 0.00 0.00 0.00 81 1029.3
20260508202036 11 107 3.2 8.0 0.00 0.00 0.00 82 1029.3
20260508201546 11 125 4.8 8.0 0.00 0.00 0.00 82 1029.3
20260508201036 11 117 3.2 8.0 0.00 0.00 0.00 83 1029.3
20260508200536 11 113 3.2 8.0 0.00 0.00 0.00 83 1029.2
20260508200047 11 132 1.6 4.8 0.00 0.00 0.00 84 1029.1
20260508195539 11 130 1.6 4.8 0.00 0.00 0.00 83 1029.1
20260508195038 11 143 1.6 8.0 0.00 0.00 0.00 83 1029.2
20260508194603 11 134 3.2 8.0 0.00 0.00 0.00 83 1029.1
20260508194037 11 140 4.8 6.4 0.00 0.00 0.00 83 1028.9
20260508193537 11 126 1.6 4.8 0.00 0.00 0.00 84 1029.0
20260508193114 11 126 3.2 4.8 0.00 0.00 0.00 84 1029.0
20260508192537 11 126 3.2 4.8 0.00 0.00 0.00 85 1029.0
20260508192037 11 126 3.2 4.8 0.00 0.00 0.00 85 1029.0
20260508191557 10 119 1.6 3.2 0.00 0.00 0.00 86 1028.9
20260508191036 10 119 1.6 3.2 0.00 0.00 0.00 86 1028.9
20260508190540 10 119 1.6 3.2 0.00 0.00 0.00 87 1028.8
20260508190108 10 119 1.6 1.6 0.00 0.00 0.00 88 1028.8
20260508185540 10 0 0.0 1.6 0.00 0.00 0.00 88 1028.9
20260508185039 9 119 0.0 3.2 0.00 0.00 0.00 88 1028.9
20260508184549 9 0 1.6 3.2 0.00 0.00 0.00 88 1028.8
20260508184039 9 119 0.0 1.6 0.00 0.00 0.00 89 1028.9
20260508183537 8 119 0.0 1.6 0.00 0.00 0.00 89 1028.9
20260508183047 8 0 0.0 1.6 0.00 0.00 0.00 87 1028.9
20260508182541 8 0 0.0 3.2 0.00 0.00 0.00 87 1028.9
20260508182041 9 0 0.0 6.4 0.00 0.00 0.00 86 1028.9
20260508181601 9 119 0.0 6.4 0.00 0.00 0.00 86 1029.0
20260508181042 9 131 3.2 6.4 0.00 0.00 0.00 86 1028.9
20260508180546 10 129 3.2 4.8 0.00 0.00 0.00 85 1029.0
20260508180055 10 131 3.2 4.8 0.00 0.00 0.00 84 1028.9
20260508175543 10 131 3.2 4.8 0.00 0.00 0.00 83 1029.0
20260508175042 10 131 3.2 8.0 0.00 0.00 0.00 82 1029.0
20260508174549 10 131 3.2 8.0 0.00 0.00 0.00 82 1029.0
20260508174043 11 139 4.8 9.7 0.00 0.00 0.00 82 1029.1
20260508173542 11 138 4.8 9.7 0.00 0.00 0.00 81 1029.1
20260508173051 11 141 4.8 14.5 0.00 0.00 0.00 80 1029.1
20260508172544 11 134 8.0 14.5 0.00 0.00 0.00 80 1029.3
20260508172041 11 138 8.0 14.5 0.00 0.00 0.00 80 1029.2
20260508171551 12 143 6.4 11.3 0.00 0.00 0.00 83 1029.2
20260508171040 12 134 6.4 12.9 0.00 0.00 0.00 85 1029.4
20260508170541 12 134 8.0 12.9 0.00 0.00 0.00 85 1029.4
20260508170049 12 148 8.0 11.3 0.00 0.00 0.00 85 1029.4
20260508165541 12 145 6.4 11.3 0.00 0.00 0.00 85 1029.5
20260508165042 12 139 4.8 6.4 0.00 0.00 0.00 85 1029.5
20260508164550 12 146 3.2 6.4 0.00 0.00 0.00 85 1029.7
20260508164042 12 135 3.2 6.4 0.00 0.00 0.00 85 1029.7
20260508163542 12 135 3.2 12.9 0.00 0.00 0.00 85 1029.6
20260508163103 11 136 6.4 12.9 0.00 0.00 0.00 86 1029.6
20260508162542 11 139 8.0 12.9 0.00 0.00 0.00 86 1029.5
20260508162045 11 158 8.0 14.5 0.00 0.00 0.00 86 1029.6
20260508161555 12 151 8.0 14.5 0.00 0.00 0.00 86 1029.7
20260508161042 12 157 9.7 14.5 0.00 0.00 0.00 85 1029.6
20260508160541 12 143 8.0 14.5 0.00 0.00 0.00 85 1029.6
20260508160050 12 139 8.0 17.7 0.00 0.00 0.00 85 1029.6
20260508155541 12 146 9.7 17.7 0.00 0.00 0.00 83 1029.8
20260508155039 12 160 6.4 12.9 0.00 0.00 0.00 81 1029.6
20260508154554 12 143 8.0 14.5 0.00 0.00 0.00 82 1029.7
20260508154041 12 143 8.0 14.5 0.00 0.00 0.00 82 1029.8
20260508153542 12 152 8.0 12.9 0.00 0.00 0.00 82 1029.8
20260508153102 12 137 4.8 11.3 0.00 0.00 0.00 81 1029.8
20260508152541 12 143 4.8 11.3 0.00 0.00 0.00 81 1029.7
20260508152041 12 136 6.4 11.3 0.00 0.00 0.00 80 1029.8
20260508151556 12 148 6.4 11.3 0.00 0.00 0.00 80 1029.8
20260508151043 12 135 6.4 14.5 0.00 0.00 0.00 80 1029.6
20260508150541 12 146 8.0 14.5 0.00 0.00 0.00 79 1029.6
20260508150052 12 140 8.0 11.3 0.00 0.00 0.00 78 1029.8
20260508145541 12 140 8.0 11.3 0.00 0.00 0.00 78 1029.7
20260508145041 12 130 8.0 11.3 0.00 0.00 0.00 79 1029.8
20260508144550 13 145 6.4 9.7 0.00 0.00 0.00 81 1029.9
20260508144042 13 156 6.4 8.0 0.00 0.00 0.00 81 1029.9
20260508143543 13 139 4.8 8.0 0.00 0.00 0.00 80 1029.9
20260508143114 13 139 4.8 6.4 0.00 0.00 0.00 80 1030.0
20260508142542 13 137 4.8 9.7 0.00 0.00 0.00 80 1030.1
20260508142042 13 128 4.8 9.7 0.00 0.00 0.00 80 1030.2
20260508141559 13 136 4.8 9.7 0.00 0.00 0.00 80 1030.1
20260508141042 13 148 6.4 11.3 0.00 0.00 0.00 80 1030.2
20260508140541 13 137 8.0 11.3 0.00 0.00 0.00 80 1030.2
20260508135542 13 147 8.0 12.9 0.00 0.00 0.00 79 1030.4
20260508135042 13 140 6.4 14.5 0.00 0.00 0.00 79 1030.5
20260508134552 13 158 8.0 14.5 0.00 0.00 0.00 77 1030.4
20260508134042 13 133 4.8 14.5 0.00 0.00 0.00 79 1030.4
20260508133541 13 153 9.7 14.5 0.00 0.00 0.00 79 1030.4
20260508133102 13 139 8.0 12.9 0.00 0.00 0.00 78 1030.4
20260508132542 13 141 6.4 11.3 0.00 0.00 0.00 76 1030.5
20260508132042 13 135 6.4 9.7 0.00 0.00 0.00 75 1030.5
20260508131552 13 139 4.8 8.0 0.00 0.00 0.00 75 1030.4
20260508131043 13 154 6.4 9.7 0.00 0.00 0.00 75 1030.5
20260508130545 13 139 6.4 9.7 0.00 0.00 0.00 75 1030.6
20260508130054 13 135 4.8 11.3 0.00 0.00 0.00 76 1030.6
20260508125542 13 139 6.4 11.3 0.00 0.00 0.00 76 1030.6
20260508125042 13 139 4.8 9.7 0.00 0.00 0.00 77 1030.6
20260508124554 13 146 4.8 9.7 0.00 0.00 0.00 77 1030.7
20260508124041 13 172 3.2 6.4 0.00 0.00 0.00 77 1030.7
20260508123542 13 146 4.8 8.0 0.00 0.00 0.00 77 1030.6
20260508123052 13 139 4.8 8.0 0.00 0.00 0.00 78 1030.4
20260508122541 13 152 3.2 6.4 0.00 0.00 0.00 78 1030.5
20260508122041 13 181 4.8 6.4 0.00 0.00 0.00 78 1030.5
20260508121550 13 138 3.2 9.7 0.00 0.00 0.00 77 1030.6
20260508121041 13 152 6.4 9.7 0.00 0.00 0.00 77 1030.5
20260508120541 13 177 3.2 8.0 0.00 0.00 0.00 76 1030.5
20260508120108 13 155 4.8 8.0 0.00 0.00 0.00 75 1030.6
20260508115546 13 163 4.8 12.9 0.00 0.00 0.00 75 1030.4
20260508115045 13 146 6.4 12.9 0.00 0.00 0.00 75 1030.5
20260508114556 13 139 6.4 12.9 0.00 0.00 0.00 75 1030.6
20260508114041 13 143 6.4 12.9 0.00 0.00 0.00 75 1030.5
20260508113543 13 167 8.0 12.9 0.00 0.00 0.00 75 1030.6
20260508113103 13 156 6.4 14.5 0.00 0.00 0.00 76 1030.5
20260508112545 13 172 6.4 19.3 0.00 0.00 0.00 76 1030.5
20260508112041 13 140 9.7 19.3 0.00 0.00 0.00 74 1030.6
20260508111546 13 150 12.9 19.3 0.00 0.00 0.00 73 1030.6
20260508111036 13 149 9.7 16.1 0.00 0.00 0.00 73 1030.5
20260508110537 13 147 6.4 11.3 0.00 0.00 0.00 73 1030.5
20260508110049 13 153 6.4 11.3 0.00 0.00 0.00 73 1030.5
20260508105537 13 134 6.4 14.5 0.00 0.00 0.00 72 1030.3
20260508105037 13 150 8.0 14.5 0.00 0.00 0.00 72 1030.2
20260508104552 13 150 8.0 14.5 0.00 0.00 0.00 72 1030.4
20260508104041 13 159 4.8 14.5 0.00 0.00 0.00 72 1030.4
20260508103537 13 153 4.8 11.3 0.00 0.00 0.00 72 1030.3
20260508103050 13 146 6.4 11.3 0.00 0.00 0.00 72 1030.4
20260508102540 13 138 8.0 9.7 0.00 0.00 0.00 72 1030.3
20260508102040 13 144 6.4 14.5 0.00 0.00 0.00 72 1030.3
20260508101548 13 158 6.4 14.5 0.00 0.00 0.00 71 1030.3
20260508101037 13 173 9.7 14.5 0.00 0.00 0.00 71 1030.4
20260508100536 13 149 8.0 14.5 0.00 0.00 0.00 71 1030.4
20260508100114 13 155 9.7 14.5 0.00 0.00 0.00 71 1030.3
20260508095539 13 172 8.0 14.5 0.00 0.00 0.00 71 1030.4
20260508095037 13 146 6.4 12.9 0.00 0.00 0.00 71 1030.4
20260508094551 13 162 8.0 16.1 0.00 0.00 0.00 71 1030.2
20260508094040 13 160 8.0 16.1 0.00 0.00 0.00 71 1030.3
20260508093540 13 174 8.0 16.1 0.00 0.00 0.00 71 1030.3
20260508093048 13 147 8.0 14.5 0.00 0.00 0.00 71 1030.4
20260508092541 13 140 8.0 14.5 0.00 0.00 0.00 71 1030.4
20260508092041 13 156 8.0 16.1 0.00 0.00 0.00 71 1030.4
20260508091609 13 166 9.7 16.1 0.00 0.00 0.00 71 1030.3
20260508091041 13 153 8.0 14.5 0.00 0.00 0.00 71 1030.3
20260508090543 13 174 8.0 16.1 0.00 0.00 0.00 71 1030.3
20260508090053 13 169 9.7 16.1 0.00 0.00 0.00 71 1030.1
20260508085539 13 157 9.7 16.1 0.00 0.00 0.00 71 1030.1
20260508085039 13 155 9.7 16.1 0.00 0.00 0.00 70 1030.0
20260508084553 13 160 8.0 16.1 0.00 0.00 0.00 70 1030.0
20260508084044 13 136 9.7 16.1 0.00 0.00 0.00 70 1030.0
20260508083539 13 146 8.0 16.1 0.00 0.00 0.00 70 1030.0
20260508083046 13 169 11.3 19.3 0.00 0.00 0.00 70 1030.0
20260508082541 13 141 11.3 19.3 0.00 0.00 0.00 70 1030.0
20260508082040 13 162 9.7 19.3 0.00 0.00 0.00 69 1030.0
20260508081610 13 144 11.3 19.3 0.00 0.00 0.00 69 1029.9
20260508081041 13 186 9.7 16.1 0.00 0.00 0.00 69 1029.8
20260508080540 13 158 11.3 16.1 0.00 0.00 0.00 68 1029.8
20260508080050 14 150 9.7 16.1 0.00 0.00 0.00 68 1029.8
20260508075540 14 161 9.7 17.7 0.00 0.00 0.00 68 1029.8
20260508075039 14 172 9.7 20.9 0.00 0.00 0.00 68 1029.8
20260508074551 14 145 11.3 20.9 0.00 0.00 0.00 67 1029.7
20260508074041 14 152 11.3 22.5 0.00 0.00 0.00 66 1029.7
20260508073543 14 157 14.5 22.5 0.00 0.00 0.00 66 1029.6
20260508073102 15 148 11.3 17.7 0.00 0.00 0.00 65 1029.7
20260508072539 15 155 11.3 19.3 0.00 0.00 0.00 64 1029.7
20260508072040 15 161 12.9 20.9 0.00 0.00 0.00 63 1029.6
20260508071547 15 180 16.1 20.9 0.00 0.00 0.00 62 1029.6
20260508071042 15 154 11.3 25.7 0.00 0.00 0.00 63 1029.5
20260508070542 15 212 12.9 25.7 0.00 0.00 0.00 63 1029.6
20260508070052 16 161 12.9 19.3 0.00 0.00 0.00 62 1029.5
20260508065541 16 181 9.7 22.5 0.00 0.00 0.00 62 1029.4
20260508065045 16 160 12.9 22.5 0.00 0.00 0.00 62 1029.5
20260508064553 16 209 8.0 20.9 0.00 0.00 0.00 62 1029.4
20260508064040 16 190 11.3 20.9 0.00 0.00 0.00 61 1029.4
20260508063540 16 143 9.7 20.9 0.00 0.00 0.00 61 1029.4
20260508063055 16 207 11.3 20.9 0.00 0.00 0.00 60 1029.3
20260508062543 16 160 11.3 20.9 0.00 0.00 0.00 59 1029.3
20260508062040 16 142 11.3 20.9 0.00 0.00 0.00 58 1029.3
20260508061548 16 161 12.9 25.7 0.00 0.00 0.00 58 1029.3
20260508061040 17 179 11.3 25.7 0.00 0.00 0.00 57 1029.3
20260508060540 17 183 12.9 25.7 0.00 0.00 0.00 57 1029.3
20260508060105 17 206 11.3 20.9 0.00 0.00 0.00 56 1029.3
20260508055539 17 165 11.3 20.9 0.00 0.00 0.00 56 1029.2
20260508055039 17 148 11.3 19.3 0.00 0.00 0.00 56 1029.2
20260508054637 17 149 11.3 17.7 0.00 0.00 0.00 56 1029.2
20260508054039 17 165 9.7 22.5 0.00 0.00 0.00 56 1029.3
20260508053539 17 172 9.7 22.5 0.00 0.00 0.00 56 1029.3
20260508053053 17 168 9.7 22.5 0.00 0.00 0.00 56 1029.3
20260508052540 17 158 12.9 22.5 0.00 0.00 0.00 57 1029.3
20260508052038 17 216 11.3 22.5 0.00 0.00 0.00 57 1029.4
20260508051552 17 175 9.7 22.5 0.00 0.00 0.00 56 1029.5
20260508051040 17 160 6.4 20.9 0.00 0.00 0.00 56 1029.4
20260508050540 17 169 11.3 22.5 0.00 0.00 0.00 56 1029.5
20260508050053 17 153 11.3 22.5 0.00 0.00 0.00 56 1029.6
20260508045539 17 178 12.9 22.5 0.00 0.00 0.00 56 1029.6
20260508045039 17 188 14.5 20.9 0.00 0.00 0.00 56 1029.6
20260508044547 17 162 11.3 20.9 0.00 0.00 0.00 56 1029.7
20260508044041 17 190 11.3 19.3 0.00 0.00 0.00 56 1029.6
20260508043538 17 165 11.3 19.3 0.00 0.00 0.00 56 1029.7
20260508043058 17 160 11.3 24.1 0.00 0.00 0.00 57 1029.8
20260508042539 17 236 14.5 24.1 0.00 0.00 0.00 57 1029.8
20260508042040 17 150 14.5 22.5 0.00 0.00 0.00 56 1030.0
20260508041551 17 173 9.7 20.9 0.00 0.00 0.00 58 1030.0
20260508041040 17 141 14.5 20.9 0.00 0.00 0.00 57 1030.1
20260508040540 17 158 12.9 20.9 0.00 0.00 0.00 57 1030.0
20260508040055 17 167 12.9 20.9 0.00 0.00 0.00 57 1030.1
20260508035540 16 136 9.7 20.9 0.00 0.00 0.00 59 1030.1
20260508035040 16 150 12.9 19.3 0.00 0.00 0.00 58 1030.1
20260508034551 16 147 9.7 19.3 0.00 0.00 0.00 60 1030.2
20260508034039 16 158 9.7 19.3 0.00 0.00 0.00 59 1030.3
20260508033539 16 189 12.9 20.9 0.00 0.00 0.00 60 1030.4
20260508033049 16 160 11.3 22.5 0.00 0.00 0.00 60 1030.5
20260508032540 16 156 11.3 22.5 0.00 0.00 0.00 60 1030.6
20260508032040 16 145 11.3 20.9 0.00 0.00 0.00 60 1030.4
20260508031556 16 184 11.3 20.9 0.00 0.00 0.00 60 1030.6
20260508031040 16 179 12.9 20.9 0.00 0.00 0.00 61 1030.8
20260508030537 16 212 12.9 20.9 0.00 0.00 0.00 61 1030.9
20260508030057 16 174 11.3 20.9 0.00 0.00 0.00 61 1031.0
20260508025544 16 158 14.5 22.5 0.00 0.00 0.00 61 1031.1
20260508025040 16 148 12.9 22.5 0.00 0.00 0.00 61 1031.2
20260508024604 16 146 11.3 20.9 0.00 0.00 0.00 62 1031.2
20260508024040 16 160 9.7 20.9 0.00 0.00 0.00 62 1031.2
20260508023537 16 171 12.9 20.9 0.00 0.00 0.00 61 1031.3
20260508023050 16 175 11.3 22.5 0.00 0.00 0.00 62 1031.4
20260508022542 16 172 16.1 24.1 0.00 0.00 0.00 61 1031.4
20260508022040 16 146 14.5 24.1 0.00 0.00 0.00 63 1031.4
20260508021551 16 155 11.3 16.1 0.00 0.00 0.00 64 1031.4
20260508021039 16 158 8.0 20.9 0.00 0.00 0.00 63 1031.3
20260508020541 15 155 11.3 20.9 0.00 0.00 0.00 64 1031.5
20260508020101 15 143 12.9 20.9 0.00 0.00 0.00 64 1031.5
20260508015540 15 133 9.7 19.3 0.00 0.00 0.00 64 1031.4
20260508015040 15 139 11.3 19.3 0.00 0.00 0.00 64 1031.5
20260508014547 15 142 12.9 19.3 0.00 0.00 0.00 64 1031.7
20260508014040 15 149 12.9 19.3 0.00 0.00 0.00 65 1031.8